158  
ASUS41 KBOX 181310  
RWRBOX  
 
REGIONAL WEATHER ROUNDUP  
NATIONAL WEATHER SERVICE BOSTON/NORTON MA  
900 AM EDT THU APR 18 2019  
 
NOTE: "FAIR" INDICATES FEW OR NO CLOUDS BELOW 12,000 FEET WITH NO  
SIGNIFICANT WEATHER AND/OR S TO VISIBILITY
.  
 
MAZALL-181400-  
EASTERN MASSACHUSETTS  
 
CITY SKY/WX TMP DP RH WIND PRES REMARKS
 
BOSTON CLOUDY 47 34 60 S9 30.26F  
BEVERLY CLOUDY 45 34 65 S6 30.25F  
LAWRENCE CLOUDY 44 33 65 S5 30.27F  
BEDFORD CLOUDY 46 31 55 S9 30.24F  
BLUE HILL N/A 43 30 60 SE13 30.23F  
NORWOOD CLOUDY 47 36 65 SE5 30.26F  
MARSHFIELD CLOUDY 46 34 61 SE9 30.27F  
PLYMOUTH CLOUDY 44 35 70 VRB7 30.27F  
TAUNTON CLOUDY 45 36 70 VRB3 30.26F  
NEW BEDFORD CLOUDY 45 38 76 SE12 30.26F  

 
 
MAZALL-181400-  
CAPE COD AND THE ISLANDS  
 
CITY SKY/WX TMP DP RH WIND PRES REMARKS
 
FALMOUTH CLOUDY 45 37 76 SE8 30.28F  
HYANNIS CLOUDY 46 34 62 SE6 30.28S  
CHATHAM CLOUDY 44 38 79 S5 30.31F  
PROVINCETOWN CLOUDY N/A N/A N/A S8 30.29F  
NANTUCKET CLOUDY 44 39 82 SE12 30.30S  
MARTHAS VNYRD CLOUDY 46 37 71 SE9 30.28S  

 
 
MAZALL-181400-  
CENTRAL AND WESTERN MASSACHUSETTS  
 
CITY SKY/WX TMP DP RH WIND PRES REMARKS
 
WORCESTER CLOUDY 43 24 47 SE12 30.21F  
FITCHBURG CLOUDY 45 30 55 SE6 30.24F  
ORANGE CLOUDY 45 32 60 CALM 30.22F  
SPRINGFIELD LGT RAIN 48 30 49 SE3 30.19F  
WESTFIELD LGT RAIN 45 37 73 S5 30.20F  
NORTH ADAMS CLOUDY 44 33 65 E8 30.14F  
PITTSFIELD CLOUDY 46 27 47 SE10 30.12F  

 
 
RIZALL-181400-  
RHODE ISLAND  
 
CITY SKY/WX TMP DP RH WIND PRES REMARKS
 
PROVIDENCE CLOUDY 46 36 68 SE9 30.26F  
NEWPORT CLOUDY 45 38 76 SE9 30.25F  
BLOCK ISLAND CLOUDY 46 39 76 SE16 30.23F  
SMITHFIELD CLOUDY 45 32 60 SE6 30.24F  
WESTERLY CLOUDY 48 41 76 E14 30.25S  

 
 
CTZALL-181400-  
CONNECTICUT  
 
CITY SKY/WX TMP DP RH WIND PRES REMARKS
 
BRADLEY INTL CLOUDY 47 37 68 SE6 30.20F  
HARTFORD CLOUDY 49 34 56 SE7 30.21S  
BRIDGEPORT CLOUDY 48 42 80 E13 30.18F  
DANBURY CLOUDY 49 33 54 SE5G16 30.16F  
GROTON CLOUDY 47 44 90 SE13 30.23F  
NEW HAVEN CLOUDY 50 39 66 E12 30.20F  
CHESTER CLOUDY 48 39 71 SE6 30.22R  
MERIDEN CLOUDY 49 36 61 SE6 30.20F  
WILLIMANTIC CLOUDY 46 34 62 S3 30.24S  
OXFORD CLOUDY 47 33 58 SE14 30.17F  

 
 
MEZ002-015-021-024-NHZ003-005-008-011-012-014-VTZ005-008-181400-  
NORTHERN NEW ENGLAND  
 
CITY SKY/WX TMP DP RH WIND PRES REMARKS
 
PORTLAND ME CLOUDY 46 29 51 S5 30.26F  
BANGOR ME FAIR 45 26 47 S6 30.26F  
CONCORD NH LGT RAIN 39 33 79 SE3 30.25R  
MANCHESTER NH CLOUDY 43 34 70 VRB3 30.23S  
NASHUA NH CLOUDY 44 33 65 VRB3 30.25S  
PORTSMOUTH NH LGT RAIN 45 32 61 S5 30.25R  
JAFFREY NH CLOUDY 43 30 60 S7 30.20S  
KEENE NH LGT RAIN 41 37 86 CALM 30.21F  
BURLINGTON VT LGT RAIN 46 34 62 SE12 30.04F  
MT. WASHINGTON CLOUDY 23 18 80 S37G45 N/A WCI 4  

 
 
NYZ052-076-181400-  
EASTERN NEW YORK  
 
CITY SKY/WX TMP DP RH WIND PRES REMARKS
 
ALBANY CLOUDY 50 32 50 S14G22 30.11F  
NEW YORK CITY CLOUDY 54 39 57 SE12 30.14F  

 
 
ANZALL-181400-  
MARINE OBSERVATIONS  
 
STATION/POSITION TIME TEMP WIND PRES VSBY WAVE
 
AIR SEA DIR/SP/G HT/PER  
(UTC) (F) (DEG/KT/KT) (MB) (MI) (FT/S)  
BOSTON BUOY 1250 42 42 130/ 10/ 10 1024.4F 1  
BUZZARDS BAY NOT AVBL  
NANTUCKET SOUND 1250 45 46 140/ 10/ 14 1025.8F 0  
MASS BAY-STELLWA 1204 42 41 160/ 6/ 8 1024.4F 1 7/8 1/ 5  
ISLE OF SHOALS 1200 42 170/ 10/ 11 1024.6F  
S OF BLOCK IS 1230 46 N/A 2/ 8  

 
   
.....................KEY......................
 
 
SKY/WX - SKY CONDITION/PRESENT WEATHER  
TMP - TEMPERATURE IN FAHRENHEIT  
DWPT - DEWPOINT IN FAHRENHEIT  
RH - RELATIVE HUMIDITY IN PERCENT  
WIND - DIRECTION AND SPEED IN MPH  
PRES - MEAN SEA LEVEL PRESSURE IN INCHES OF HG  
WCI - WIND CHILL INDEX  
VSB - VISIBILITY IN MILES  
HX - HEAT INDEX  
TC - TEMPERATURE IN CELSIUS  
VRB - VARIABLE WIND DIRECTION  
N/A - NOT AVAILABLE  
 
 
CLICK HERE TO GO TO PREVIOUS BULLETINS.

The Nexlab MA Page
The Nexlab RI Page
The Nexlab NH Page
The Nexlab CT Page Main Text Page